+ View the NASA Portal
+ Center for Near-Earth Object Studies
JPL Small-Body Database Browser
Search:
[
help
]
46458 (4244 P-L)
Classification:
Main-belt Asteroid
SPK-ID:
2046458
[
Ephemeris
|
Orbit Diagram
|
Orbital Elements
|
Mission Design
|
Physical Parameters
|
Discovery Circumstances
|
Close-Approach Data
]
[ show orbit diagram ]
Orbital Elements at Epoch 2459000.5 (2020-May-31.0) TDB
Reference:
JPL 20
(heliocentric ecliptic J2000)
Element
Value
Uncertainty (1-sigma)
Units
e
.1909244235822271
3.8326e-08
a
2.455542360768574
1.2225e-08
au
q
1.986719350957093
9.8165e-08
au
i
5.94241360313269
7.1136e-06
deg
node
211.7749427547049
3.6874e-05
deg
peri
63.71385425534589
4.2818e-05
deg
M
245.9456995622624
2.2708e-05
deg
t
p
2459445.775435470611
(2021-Aug-19.27543547)
9.0742e-05
TDB
period
1405.463504262405
3.85
1.0495e-05
2.873e-08
d
yr
n
.2561432573013911
1.9128e-09
deg/d
Q
2.924365370580055
1.4558e-08
au
Orbit Determination Parameters
# obs. used (total)
525
data-arc span
21732 days (59.50 yr)
first obs. used
1960-09-24
last obs. used
2020-03-25
planetary ephem.
DE431
SB-pert. ephem.
SB431-N16
condition code
0
norm. resid. RMS
.53749
source
ORB
producer
Otto Matic
solution date
2020-Nov-12 23:47:10
Additional Information
Earth MOID
= .979202 au
Jupiter MOID
= 2.20749 au
T_jup
= 3.460
[ hide covariance matrix ]
Orbital Elements at Epoch 2457299.5 (2015-Oct-04.0) TDB
Reference:
JPL 20
(heliocentric ecliptic J2000)
Element
Value
Uncertainty (1-sigma)
Units
e
.1917464105653996
3.8139e-08
q
1.983887254751488
9.77e-08
au
t
p
2456635.003714500552
(2013-Dec-08.50371450)
7.8503e-05
TDB
node
211.8224422122582
3.6904e-05
deg
peri
63.64827301300904
4.2807e-05
deg
i
5.94052495655277
7.1132e-06
deg
Orbit Determination Parameters
# obs. used (total)
525
data-arc span
21732 days (59.50 yr)
first obs. used
1960-09-24
last obs. used
2020-03-25
planetary ephem.
DE431
SB-pert. ephem.
SB431-N16
condition code
0
norm. resid. RMS
.53749
source
ORB
producer
Otto Matic
solution date
2020-Nov-12 23:47:10
Additional Information
Jupiter MOID
= 2.20749 au
T_jup
= 3.460
Orbit Covariance (6×6)
e
q
tp
node
peri
i
e
1.454572595906183E-15
-3.709802881234882E-15
-1.466554884525516E-12
6.439837692190006E-15
-4.129055019267263E-13
-1.227561070069673E-16
q
-3.709802881234882E-15
9.54530629868259E-15
3.963981545555535E-12
-1.803822268612362E-14
1.121749084381451E-12
5.330548184844828E-16
tp
-1.466554884525516E-12
3.963981545555535E-12
6.162680890084452E-9
-2.758054834552848E-11
1.708766489525084E-9
-1.193443560629562E-12
node
6.439837692190006E-15
-1.803822268612362E-14
-2.758054834552848E-11
1.361936021371177E-9
-1.361837234022143E-9
-4.776836989494275E-11
peri
-4.129055019267263E-13
1.121749084381451E-12
1.708766489525084E-9
-1.361837234022143E-9
1.832450977605493E-9
4.721323143110347E-11
i
-1.227561070069673E-16
5.330548184844828E-16
-1.193443560629562E-12
-4.776836989494275E-11
4.721323143110347E-11
5.059830528459613E-11
[
Ephemeris
|
Orbit Diagram
|
Orbital Elements
|
Mission Design
|
Physical Parameters
|
Discovery Circumstances
|
Close-Approach Data
]
Physical Parameter Table
Parameter
Symbol
Value
Units
Sigma
Reference
Notes
absolute magnitude
H
16.0
n/a
MPO452805
diameter
diameter
2.745
km
0.118
urn:nasa:pds:neowise_diameters_albedos::2.0[mainbelt] (http://adsabs.harvard.edu/abs/2011ApJ...741...68M)
geometric albedo
albedo
0.102
0.017
urn:nasa:pds:neowise_diameters_albedos::2.0[mainbelt] (http://adsabs.harvard.edu/abs/2011ApJ...741...68M)
46458 (4244 P-L)
Discovered 1960-Sep-24 by van Houten, C. J., van Houten-Groeneveld, I., Gehrels, T. at Palomar
Reference:
20020822/Numbers.arc
Last Updated:
2004-04-19
[ show close-approach data ]
Alternate Designations
4244 P-L
= 1999 VJ116
[
Ephemeris
|
Orbit Diagram
|
Orbital Elements
|
Mission Design
|
Physical Parameters
|
Discovery Circumstances
|
Close-Approach Data
]
2021-Jan-22 11:05 UT
(server date/time)
Site Manager:
Ryan S. Park
Webmaster
:
Alan B. Chamberlin